TimeEST,TemperatureF,Dew PointF,Humidity,Sea Level PressureIn,VisibilityMPH,Wind Direction,Wind SpeedMPH,Gust SpeedMPH,PrecipitationIn,Events,Conditions,WindDirDegrees,DateUTC
12:53 AM,16.0,9.0,74,30.52,10.0,North,3.5,-,N/A,,Overcast,10,2014-01-09 05:53:00
1:53 AM,15.1,10.0,80,30.53,10.0,East,4.6,-,N/A,,Overcast,100,2014-01-09 06:53:00
2:53 AM,16.0,10.0,77,30.54,10.0,East,4.6,-,N/A,,Overcast,100,2014-01-09 07:53:00
3:53 AM,15.1,10.0,80,30.55,9.0,ESE,4.6,-,N/A,,Overcast,110,2014-01-09 08:53:00
4:53 AM,15.1,10.0,80,30.55,10.0,SE,4.6,-,N/A,,Overcast,130,2014-01-09 09:53:00
5:53 AM,15.1,9.0,77,30.55,10.0,SE,6.9,-,N/A,,Overcast,130,2014-01-09 10:53:00
6:53 AM,15.1,9.0,77,30.54,10.0,SSE,5.8,-,N/A,,Overcast,150,2014-01-09 11:53:00
7:53 AM,14.0,8.1,77,30.55,10.0,SE,6.9,-,N/A,,Overcast,140,2014-01-09 12:53:00
8:27 AM,12.9,8.1,81,30.51,10.0,SSE,9.2,-,N/A,,Overcast,160,2014-01-09 13:27:00
8:53 AM,12.9,8.1,81,30.56,10.0,SE,10.4,-,N/A,,Overcast,140,2014-01-09 13:53:00
9:53 AM,12.0,7.0,80,30.57,10.0,SE,8.1,-,N/A,,Overcast,140,2014-01-09 14:53:00
10:35 AM,12.0,7.0,80,30.51,10.0,ESE,9.2,-,N/A,,Scattered Clouds,120,2014-01-09 15:35:00
10:53 AM,12.0,7.0,80,30.56,10.0,ESE,9.2,-,N/A,,Clear,120,2014-01-09 15:53:00
11:53 AM,14.0,9.0,80,30.51,10.0,East,9.2,-,N/A,,Clear,90,2014-01-09 16:53:00
12:53 PM,15.1,8.1,74,30.46,10.0,East,10.4,-,N/A,,Partly Cloudy,90,2014-01-09 17:53:00
1:53 PM,17.1,10.0,74,30.43,10.0,East,9.2,-,N/A,,Mostly Cloudy,100,2014-01-09 18:53:00
2:53 PM,19.0,10.0,68,30.41,10.0,ESE,9.2,-,N/A,,Overcast,110,2014-01-09 19:53:00
3:43 PM,19.0,12.0,74,30.36,5.0,ESE,9.2,-,0.00,Snow,Light Snow,120,2014-01-09 20:43:00
3:53 PM,19.0,12.0,74,30.40,4.0,ESE,8.1,-,0.00,Snow,Light Snow,110,2014-01-09 20:53:00
4:53 PM,18.0,12.9,81,30.39,5.0,ESE,8.1,-,0.00,Snow,Light Snow,120,2014-01-09 21:53:00
6:53 PM,19.0,14.0,81,30.35,9.0,ESE,8.1,-,N/A,,Overcast,120,2014-01-09 23:53:00
7:39 PM,19.9,15.1,81,30.30,9.0,SE,9.2,-,0.00,,Overcast,130,2014-01-10 00:39:00
7:53 PM,19.9,16.0,85,30.34,4.0,SE,9.2,-,0.00,Snow,Light Snow,130,2014-01-10 00:53:00
8:50 PM,19.4,15.8,86,30.27,9.0,SE,9.2,-,0.00,,Overcast,130,2014-01-10 01:50:00
8:53 PM,19.9,16.0,85,30.32,9.0,SE,9.2,-,0.00,,Overcast,130,2014-01-10 01:53:00
9:53 PM,21.0,17.1,85,30.29,6.0,SSE,10.4,-,N/A,,Overcast,150,2014-01-10 02:53:00
10:21 PM,21.9,18.0,85,30.24,6.0,SSE,9.2,-,N/A,,Overcast,150,2014-01-10 03:21:00
10:53 PM,21.9,19.0,89,30.27,6.0,SE,10.4,-,N/A,,Overcast,140,2014-01-10 03:53:00
11:53 PM,23.0,19.9,88,30.25,6.0,SSE,8.1,-,N/A,,Overcast,150,2014-01-10 04:53:00